N8DNY-13 Weather Reports


Display with metric or nautical units.
time (UTC)temp
F
wind
direction
speed
MPH
gust
MPH
rain 1hr
in
rain 24hr
in
rain mn
in
humidity
%
barometer
mb
20260509211241 60 286 0.0 0.0 0.24 0.20 0.20 89 1008.6
20260509205720 62 277 1.0 2.0 0.66 0.11 0.11 82 1008.5
20260509204214 69 275 0.0 1.0 0.00 0.00 0.00 56 1006.8
20260509202710 71 298 1.0 2.0 0.00 0.00 0.00 49 1006.8
20260509201207 73 284 5.0 10.0 0.00 0.00 0.00 48 1007.0
20260509195720 73 197 5.0 8.0 0.00 0.00 0.00 48 1007.1
20260509194150 72 236 2.0 3.0 0.00 0.00 0.00 50 1007.5
20260509192641 73 277 0.0 1.0 0.00 0.00 0.00 49 1007.5
20260509191140 73 319 2.0 4.0 0.00 0.00 0.00 51 1007.8
20260509185630 74 39 3.0 4.0 0.00 0.00 0.00 50 1008.0
20260509184121 74 269 2.0 3.0 0.00 0.00 0.00 54 1008.2
20260509182620 72 269 1.0 2.0 0.00 0.00 0.00 55 1008.3
20260509181134 72 274 6.0 10.0 0.00 0.00 0.00 56 1008.5
20260509175610 71 207 4.0 6.0 0.00 0.00 0.00 55 1008.5
20260509174128 71 193 4.0 6.0 0.00 0.00 0.00 55 1008.7
20260509172620 70 132 5.0 9.0 0.00 0.00 0.00 56 1008.6
20260509171110 70 200 5.0 8.0 0.00 0.00 0.00 56 1008.8
20260509165543 70 171 6.0 10.0 0.00 0.00 0.00 56 1008.7
20260509164040 69 281 0.0 1.0 0.00 0.00 0.00 60 1008.8
20260509162556 69 240 0.0 2.0 0.00 0.00 0.00 58 1008.9
20260509161033 67 184 3.0 5.0 0.00 0.00 0.00 62 1009.1
20260509155532 66 192 8.0 12.0 0.00 0.00 0.00 63 1009.1
20260509154030 65 244 2.0 2.0 0.00 0.00 0.00 64 1009.4
20260509152522 66 268 2.0 4.0 0.00 0.00 0.00 64 1009.3
20260509151020 64 197 1.0 2.0 0.00 0.00 0.00 69 1009.5
20260509145516 64 271 1.0 2.0 0.00 0.00 0.00 71 1009.7
20260509144011 62 244 1.0 2.0 0.00 0.00 0.00 74 1009.6
20260509142523 60 254 1.0 2.0 0.00 0.00 0.00 76 1010.1
20260509141022 61 251 0.0 1.0 0.00 0.00 0.00 75 1010.2
20260509135522 59 282 0.0 1.0 0.00 0.00 0.00 82 1010.4
20260509134000 57 287 0.0 1.0 0.00 0.00 0.00 85 1010.4
20260509132457 56 251 1.0 2.0 0.00 0.00 0.00 87 1010.2
20260509131014 56 262 1.0 1.0 0.00 0.00 0.00 89 1010.4
20260509125451 55 282 0.0 0.0 0.00 0.00 0.00 91 1010.4
20260509124010 54 275 0.0 0.0 0.00 0.00 0.00 94 1010.3
20260509122443 53 252 1.0 2.0 0.00 0.00 0.00 96 1010.6
20260509120940 53 259 0.0 1.0 0.00 0.00 0.00 98 1010.2
20260509115436 53 272 0.0 0.0 0.00 0.00 0.00 98 1010.5
20260509113930 52 280 0.0 0.0 0.00 0.00 0.00 98 1010.6
20260509112440 51 275 0.0 0.0 0.00 0.00 0.00 98 1010.2
20260509110910 51 275 0.0 0.0 0.00 0.00 0.00 98 1010.2
20260509105409 51 311 0.0 1.0 0.00 0.00 0.00 98 1010.3
20260509103906 51 281 0.0 1.0 0.00 0.00 0.00 98 1010.2
20260509102400 51 275 0.0 0.0 0.00 0.00 0.00 98 1010.3
20260509100919 52 269 0.0 0.0 0.00 0.00 0.00 98 1010.1
20260509095356 52 271 0.0 0.0 0.00 0.00 0.00 98 1010.1
20260509093853 51 272 0.0 0.0 0.00 0.00 0.00 98 1010.1
20260509092350 52 278 0.0 0.0 0.00 0.00 0.00 98 1010.3
20260509090847 51 269 0.0 1.0 0.00 0.00 0.00 98 1010.2
20260509085340 52 274 0.0 0.0 0.00 0.00 0.00 98 1010.4
20260509083850 52 273 0.0 0.0 0.00 0.00 0.00 97 1010.5
20260509082323 51 271 0.0 0.0 0.00 0.00 0.00 97 1010.8
20260509080840 51 268 0.0 0.0 0.00 0.00 0.00 97 1010.8
20260509075316 51 257 0.0 1.0 0.00 0.00 0.00 97 1011.0
20260509073810 51 270 0.0 1.0 0.00 0.00 0.00 97 1011.0
20260509072300 51 264 0.0 1.0 0.00 0.00 0.00 97 1011.1
20260509070752 52 265 0.0 0.0 0.00 0.00 0.00 97 1011.2
20260509065250 51 265 0.0 0.0 0.00 0.00 0.00 96 1011.3
20260509063746 52 269 0.0 0.0 0.00 0.00 0.00 96 1011.6
20260509062240 52 270 0.0 0.0 0.00 0.00 0.00 95 1011.4
20260509060750 52 269 0.0 0.0 0.00 0.00 0.00 95 1011.6
20260509055222 53 272 0.0 0.0 0.00 0.00 0.00 94 1011.7
20260509053720 53 270 0.0 0.0 0.00 0.00 0.00 93 1011.7
20260509052216 54 270 0.0 0.0 0.00 0.00 0.00 92 1012.0
20260509050710 54 269 0.0 1.0 0.00 0.00 0.00 91 1012.1
20260509045220 54 271 0.0 0.0 0.00 0.00 0.00 90 1011.9
20260509043653 55 278 0.0 0.0 0.00 0.00 0.00 89 1012.0
20260509042150 55 266 0.0 1.0 0.00 0.00 0.00 88 1012.2
20260509040647 55 270 0.0 0.0 0.00 0.00 0.00 88 1012.2
20260509035140 55 277 0.0 0.0 0.00 0.00 0.00 88 1012.3
20260509033630 55 269 0.0 1.0 0.00 0.00 0.00 88 1012.1
20260509032124 55 270 0.0 2.0 0.00 0.00 0.00 88 1012.5
20260509030620 54 270 0.0 0.0 0.00 0.00 0.00 89 1012.6
20260509025118 54 263 0.0 1.0 0.00 0.00 0.00 89 1012.7
20260509023616 54 246 0.0 1.0 0.00 0.00 0.00 88 1012.9
20260509022112 54 267 0.0 1.0 0.00 0.00 0.00 88 1012.9
20260509020610 55 277 0.0 0.0 0.00 0.00 0.00 87 1012.8
20260509015106 55 266 0.0 1.0 0.00 0.00 0.00 86 1012.6
20260509013600 55 276 0.0 0.0 0.00 0.00 0.00 85 1012.5
20260509012110 56 282 0.0 1.0 0.00 0.00 0.00 84 1012.3
20260509010542 56 259 0.0 1.0 0.00 0.00 0.00 82 1012.3
20260509005040 56 271 0.0 0.0 0.00 0.00 0.00 80 1012.1
20260509003530 57 276 0.0 0.0 0.00 0.00 0.00 80 1012.3
20260509002021 57 280 0.0 0.0 0.00 0.00 0.00 79 1012.2
20260509000520 57 258 0.0 0.0 0.00 0.00 0.00 80 1012.4
20260508235013 57 268 0.0 0.0 0.00 0.00 0.00 78 1012.2
20260508233510 58 269 0.0 0.0 0.00 0.00 0.00 77 1012.2
20260508232008 58 263 0.0 1.0 0.00 0.00 0.00 73 1012.3
20260508230522 60 225 2.0 3.0 0.00 0.00 0.00 67 1012.4
20260508225001 59 256 2.0 3.0 0.00 0.00 0.00 70 1012.5
20260508223500 59 249 2.0 3.0 0.00 0.00 0.00 70 1012.4
20260508221956 59 186 3.0 5.0 0.00 0.00 0.00 68 1012.4
20260508220450 60 291 1.0 2.0 0.00 0.00 0.00 64 1012.3
20260508214940 61 277 0.0 0.0 0.00 0.00 0.00 64 1012.5
20260508213433 61 270 2.0 4.0 0.00 0.00 0.00 63 1012.3